Flag for U.S.A. Weather past 2 weeks in Nashville, Tennessee, U.S.A.

Now
42 °F

Partly sunny.


Feels Like: 37 °F
Forecast: 33 / 44 °F
Wind: 8 mph from Northeast

Location: Nashville International Airport

Current Time: Jan 27, 2015 at 11:53:29 AM

Latest Report: Jan 27, 2015 at 10:53 AM


Visibility: 10 mi

Pressure: 30.09 "Hg

Humidity: 71%

Dew point: 33 °F

Location of NashvilleLocation

Historic Weather in Nashville — Graph

°F

Nashville temperature yesterday

Maximum temperature yesterday: 42 °F (at 12:53 AM)
Minimum temperature yesterday: 33 °F (at 5:53 AM)
Average temperature yesterday: 35 °F

Past Weeks' High & Low Weather Summary

 TemperatureHumidityPressure
High67 °F (Jan 19, 2:53 PM)97% (Jan 12, 11:53 AM)30.48 "Hg (Jan 12, 11:53 AM)
Low24 °F (Jan 16, 6:53 AM)20% (Jan 19, 2:53 PM)29.63 "Hg (Jan 25, 2:53 PM)
Average40 °F69%30.11 "Hg
* Reported Jan 12 10:00 AM — Jan 27 10:53 AM, Nashville, Weather by CustomWeather, © 2014

Note: Actual official high and low records may vary slightly from our data, if they occured in-between our weather recording intervals... More about our weather records

Advertising

Nashville weather history for previous 24 hours

 ConditionsComfort  
Time TempWeatherWind HumidityBarometerVisibility
10:53 AM
Jan 27
42 °FPartly sunny.8 mph71%30.09 "Hg10 mi
9:53 AM40 °FCloudy.9 mph73%30.07 "Hg10 mi
8:53 AM38 °FBroken clouds.10 mph79%30.03 "Hg10 mi
7:53 AM36 °FPartly sunny.8 mph82%30.01 "Hg10 mi
6:53 AM34 °FScattered clouds.6 mph85%29.98 "Hg9 mi
5:53 AM33 °FMostly cloudy.3 mph88%29.95 "Hg8 mi
4:53 AM34 °FOvercast.No wind88%29.92 "Hg8 mi
3:53 AM34 °FOvercast.No wind88%29.90 "Hg8 mi
2:53 AM35 °FMostly cloudy.No wind88%29.91 "Hg9 mi
1:53 AM34 °FOvercast.6 mph88%29.90 "Hg8 mi
12:53 AM34 °FOvercast.3 mph88%29.93 "Hg8 mi
11:53 PM
Jan 26
34 °FOvercast.3 mph88%29.94 "Hg8 mi
10:53 PM34 °FOvercast.5 mph88%29.97 "Hg8 mi
9:53 PM34 °FOvercast.3 mph88%29.98 "Hg9 mi
8:53 PM34 °FOvercast.3 mph88%29.99 "Hg10 mi
7:53 PM34 °FMostly cloudy.No wind88%29.99 "Hg10 mi
6:53 PM34 °FOvercast.5 mph85%29.98 "Hg9 mi
5:53 PM34 °FLight snow. Overcast.5 mph82%29.96 "Hg8 mi
4:53 PM36 °FMostly cloudy.6 mph73%29.99 "Hg10 mi
3:53 PM36 °FMostly cloudy.6 mph73%29.97 "Hg10 mi
2:53 PM35 °FMostly cloudy.8 mph78%29.96 "Hg10 mi
1:53 PM35 °FOvercast.5 mph75%29.97 "Hg10 mi
1:00 PM34 °FOvercast.8 mph81%29.99 "Hg10 mi
11:53 AM34 °FOvercast.7 mph79%30.02 "Hg10 mi
Weather by CustomWeather, © 2014

See weather overviewHow to use our weather pages